Flag for Germany Weather past 2 weeks in Bremerhaven, Bremen, Germany

Now
59 °F

Scattered clouds.


Feels Like: 56 °F
Forecast: 50 / 70 °F
Wind: 15 mph from Northwest

Location: Nordholz

Current Time: Jul 31, 2015 at 3:31:12 PM

Latest Report: Jul 31, 2015 at 2:20 PM


Visibility: N/A

Pressure: 30.09 "Hg

Humidity: 55%

Dew point: 43 °F

Location of BremerhavenLocation

Historic Weather in Bremerhaven — Graph

°F

Bremerhaven temperature yesterday

Maximum temperature yesterday: 61 °F (at 10:20 AM)
Minimum temperature yesterday: 55 °F (at 6:20 PM)
Average temperature yesterday: 58 °F

Past Weeks' High & Low Weather Summary

 TemperatureHumidityPressure
High82 °F (Jul 17, 2:20 PM)100% (Jul 19, 7:01 PM)30.12 "Hg (Jul 19, 7:01 PM)
Low50 °F (Jul 24, 4:20 AM)50% (Jul 24, 4:20 PM)29.42 "Hg (Jul 25, 11:58 AM)
Average61 °F80%29.79 "Hg
* Reported Jul 16 1:20 PM — Jul 31 1:20 PM, Bremerhaven, Weather by CustomWeather, © 2015

Note: Actual official high and low records may vary slightly from our data, if they occured in-between our weather recording intervals... More about our weather records

Advertising

Bremerhaven weather history for previous 24 hours

 ConditionsComfort  
Time TempWeatherWind HumidityBarometerVisibility
1:20 PM
Fri, Jul 31
61 °FPartly sunny.20 mph55%30.09 "HgN/A
12:20 PM61 °FScattered clouds.17 mph55%30.09 "HgN/A
11:20 AM59 °FScattered clouds.16 mph63%30.09 "HgN/A
10:20 AM57 °FPartly sunny.15 mph63%30.07 "HgN/A
9:20 AM57 °FPartly sunny.12 mph67%30.07 "HgN/A
8:20 AM55 °FScattered showers. Partly sunny.16 mph72%30.04 "HgN/A
7:20 AM55 °FPartly sunny.7 mph72%30.04 "HgN/A
6:20 AM55 °FPassing clouds.12 mph67%30.01 "HgN/A
5:20 AM54 °FScattered showers. Partly cloudy.7 mph82%30.01 "HgN/A
4:20 AM55 °FPassing clouds.10 mph67%30.01 "HgN/A
3:20 AM55 °FPassing clouds.13 mph67%30.01 "HgN/A
2:20 AM57 °FPassing clouds.15 mph59%30.01 "HgN/A
1:20 AM55 °FPassing clouds.14 mph67%29.98 "HgN/A
12:20 AM55 °FPassing clouds.17 mph77%29.98 "HgN/A
11:20 PM
Thu, Jul 30
55 °FSprinkles. Passing clouds.20 mph77%29.98 "HgN/A
10:20 PM57 °FBroken clouds.18 mph72%29.95 "HgN/A
9:20 PM55 °FBroken clouds.14 mph77%29.95 "HgN/A
8:53 PM55 °FSprinkles. Broken clouds.23 mph77%29.95 "HgN/A
8:20 PM57 °FScattered showers. Broken clouds.18 mph77%29.92 "HgN/A
7:20 PM57 °FScattered showers. Broken clouds.20 mph77%29.92 "HgN/A
6:20 PM55 °FSprinkles. Partly sunny.22 mph88%29.92 "Hg4 mi
5:20 PM59 °FPartly sunny.24 mph68%29.89 "HgN/A
4:20 PM59 °FScattered showers. Broken clouds.20 mph77%29.86 "HgN/A
3:20 PM59 °FSprinkles. Broken clouds.28 mph77%29.86 "HgN/A
Weather by CustomWeather, © 2015

See weather overviewHow to use our weather pages